Vero Beach, FL

6:34 PM EST on December 13, 2017 (GMT -0500)
Vero Beach Municipal

Weather History for KVRB - March, 2013

Change the Weather History Date:

Wednesday, March 6, 2013

  Actual Average Record
Temperature  
Mean Temperature 61 °F 66 °F  
Max Temperature 73 °F 76 °F 90 °F (2003)
Min Temperature 49 °F 57 °F 38 °F (1962)
Degree Days  
Heating Degree Days 4 2  
Month to date heating degree days 62 17  
Since 1 July heating degree days 290 402  
Cooling Degree Days 0 4  
Month to date cooling degree days 0 24  
Year to date cooling degree days 235 163  
Growing Degree Days 12 (Base 50)    
Moisture  
Dew Point 42 °F    
Average Humidity 55    
Maximum Humidity 93    
Minimum Humidity 16    
Precipitation  
Precipitation 0.02 in 0.12 in 4.15 in (1982)
Month to date precipitation 0.02 0.67  
Year to date precipitation 2.57 5.84  
Sea Level Pressure  
Sea Level Pressure 30.03 in    
Wind  
Wind Speed 14 mph (West)    
Max Wind Speed 28 mph    
Max Gust Speed 35 mph    
Visibility 10 miles    
Events Rain    
T = Trace of Precipitation, MM = Missing Value Source: NWS Daily Summary

Daily Weather History Graph

Daily Weather History Graph

Search for Another Location

Airport or City:

Trip Planner

Search our weather history database for the weather conditions in past years. The results will help you decide how hot, cold, wet, or windy it might be!

Date:

Astronomy

Mar. 06, 2013 Rise Set
Actual Time 6:40 AM EST 6:25 PM EST
Civil Twilight 6:17 AM EST 6:48 PM EST
Nautical Twilight 5:50 AM EST 7:15 PM EST
Astronomical Twilight 5:23 AM EST 7:43 PM EST
Moon 2:26 AM EST (3/6) 1:26 PM EST (3/6)
Length of Visible Light 12h 31m
Length of Day
11h 44m
Waning Crescent, 30% of the Moon is Illuminated
Mar 6
Waning Crescent
Mar 11
New
Mar 19
First Quarter
Mar 27
Full
Apr 3
Last Quarter

Hourly Weather History & Observations

Time (EST) Temp. Dew Point Humidity Pressure Visibility Wind Dir Wind Speed Gust Speed Precip Events Conditions
12:53 AM 57.0 °F 53.1 °F 87% 30.05 in 10.0 mi SSW 10.4 mph - N/A   Clear
1:53 AM 55.9 °F 53.1 °F 90% 30.03 in 10.0 mi SW 5.8 mph - N/A   Partly Cloudy
2:53 AM 55.9 °F 54.0 °F 93% 30.01 in 9.0 mi SW 8.1 mph - N/A   Scattered Clouds
3:53 AM 60.1 °F 55.9 °F 86% 29.99 in 10.0 mi SW 9.2 mph - N/A   Mostly Cloudy
4:53 AM 60.1 °F 55.9 °F 86% 29.99 in 10.0 mi SW 9.2 mph - N/A   Partly Cloudy
5:53 AM 60.1 °F 57.0 °F 90% 29.99 in 10.0 mi SSW 9.2 mph - N/A   Overcast
6:53 AM 61.0 °F 57.0 °F 87% 30.01 in 10.0 mi SW 9.2 mph - N/A   Overcast
7:53 AM 63.0 °F 59.0 °F 87% 30.02 in 10.0 mi SW 9.2 mph - 0.02 in   Mostly Cloudy
8:20 AM 64.4 °F 59.0 °F 83% 30.03 in 10.0 mi SW 11.5 mph - 0.00 in Rain Light Rain
8:53 AM 64.0 °F 60.1 °F 87% 30.05 in 10.0 mi WSW 12.7 mph - 0.00 in   Overcast
9:53 AM 66.9 °F 55.0 °F 66% 30.06 in 10.0 mi West 17.3 mph - N/A   Overcast
10:48 AM 68.0 °F 50.0 °F 52% 30.07 in 10.0 mi WNW 13.8 mph 19.6 mph N/A   Partly Cloudy
10:53 AM 68.0 °F 50.0 °F 52% 30.06 in 10.0 mi WNW 11.5 mph 19.6 mph N/A   Partly Cloudy
11:53 AM 69.1 °F 41.0 °F 36% 30.05 in 10.0 mi West 9.2 mph 16.1 mph N/A   Clear
12:53 PM 70.0 °F 33.1 °F 26% 30.02 in 10.0 mi WSW 20.7 mph 28.8 mph N/A   Clear
1:53 PM 69.1 °F 30.9 °F 24% 29.99 in 10.0 mi West 21.9 mph 26.5 mph N/A   Clear
2:53 PM 71.1 °F 32.0 °F 24% 29.98 in 10.0 mi West 25.3 mph 34.5 mph N/A   Clear
3:53 PM 72.0 °F 26.1 °F 18% 29.96 in 10.0 mi WNW 23.0 mph 29.9 mph N/A   Clear
4:53 PM 71.1 °F 24.1 °F 17% 29.96 in 10.0 mi West 21.9 mph 27.6 mph N/A   Clear
5:53 PM 66.0 °F 19.0 °F 17% 29.99 in 10.0 mi WNW 20.7 mph 26.5 mph N/A   Clear
6:53 PM 59.0 °F 24.1 °F 26% 30.01 in 10.0 mi West 11.5 mph - N/A   Clear
7:53 PM 55.9 °F 28.0 °F 34% 30.04 in 10.0 mi West 12.7 mph - N/A   Clear
8:53 PM 54.0 °F 28.9 °F 38% 30.07 in 10.0 mi WNW 11.5 mph - N/A   Clear
9:53 PM 53.1 °F 32.0 °F 45% 30.10 in 10.0 mi WNW 13.8 mph - N/A   Clear
10:53 PM 51.1 °F 33.1 °F 50% 30.12 in 10.0 mi WNW 11.5 mph - N/A   Clear
11:53 PM 48.9 °F 33.1 °F 54% 30.13 in 10.0 mi NW 9.2 mph - N/A   Clear